Location: Aalen
(48.8330°N, 10.1000°E)
Time: 04:58:30
(UTC+02:00)

Transit 2A - Pass Details

Date: 29 July 2021
Orbit: 594 x 964 km, 66.7° (Epoch: 27 September)

Event Time Altitude Azimuth Distance (km) Brightness Sun altitude
Rises 14:10:28 0° 325° (NW) 3,094 9.0 58.5°
Reaches altitude 10° 14:13:39 10° 348° (NNW) 2,248 8.3 58.3°
Maximum altitude 14:16:49 16° 26° (NNE) 1,928 8.0 58.1°
Drops below altitude 10° 14:20:11 10° 64° (ENE) 2,401 8.4 57.9°
Sets 14:23:44 0° 85° (E) 3,413 9.2 57.6°
